Time,TemperatureF,DewpointF,PressureIn,WindDirection,WindDirectionDegrees,WindSpeedMPH,WindSpeedGustMPH,Humidity,HourlyPrecipIn,Conditions,Clouds,dailyrainin,SoftwareType,DateUTC
2013-06-01 00:02:00,68.9,65.5,29.88,ESE,112,0.0,2.0,89,0.00,,,0.00,meteohub,2013-06-01 05:02:00,
2013-06-01 00:07:00,68.7,65.7,29.85,East,90,0.0,2.0,90,0.00,,,0.00,meteohub,2013-06-01 05:07:00,
2013-06-01 00:12:00,68.7,65.7,29.85,East,90,0.0,2.0,90,0.00,,,0.00,meteohub,2013-06-01 05:12:00,
2013-06-01 00:17:00,68.5,65.5,29.85,ESE,112,2.0,3.0,90,0.00,,,0.00,meteohub,2013-06-01 05:17:00,
2013-06-01 00:22:00,68.5,65.5,29.82,ESE,112,5.0,5.0,90,0.00,,,0.00,meteohub,2013-06-01 05:22:00,
2013-06-01 00:27:00,68.5,65.5,29.82,East,90,3.0,6.0,90,0.00,,,0.00,meteohub,2013-06-01 05:27:00,
2013-06-01 00:32:00,68.5,65.8,29.82,ESE,112,5.0,6.0,91,0.00,,,0.00,meteohub,2013-06-01 05:32:00,
2013-06-01 00:37:00,68.5,65.8,29.82,ESE,112,3.0,6.0,91,0.00,,,0.00,meteohub,2013-06-01 05:37:00,
2013-06-01 00:42:00,68.5,65.8,29.82,South,180,3.0,9.0,91,0.00,,,0.00,meteohub,2013-06-01 05:42:00,
2013-06-01 00:47:00,68.7,66.4,29.82,SSW,202,0.0,9.0,92,0.00,,,0.00,meteohub,2013-06-01 05:47:00,
2013-06-01 00:52:00,68.9,66.6,29.85,ESE,112,0.0,6.0,92,0.00,,,0.00,meteohub,2013-06-01 05:52:00,
2013-06-01 00:57:00,68.9,66.6,29.85,SSW,202,0.0,3.0,92,0.00,,,0.00,meteohub,2013-06-01 05:57:00,
2013-06-01 01:02:00,68.9,66.6,29.85,SSW,202,0.0,2.0,92,0.00,,,0.00,meteohub,2013-06-01 06:02:00,
2013-06-01 01:07:00,69.1,66.7,29.82,SSW,202,0.0,2.0,92,0.00,,,0.00,meteohub,2013-06-01 06:07:00,
2013-06-01 01:12:00,69.1,66.7,29.82,South,180,0.0,2.0,92,0.00,,,0.00,meteohub,2013-06-01 06:12:00,
2013-06-01 01:17:00,69.3,67.1,29.82,South,180,0.0,3.0,93,0.00,,,0.00,meteohub,2013-06-01 06:17:00,
2013-06-01 01:22:00,69.3,67.1,29.85,SW,225,0.0,3.0,93,0.00,,,0.00,meteohub,2013-06-01 06:22:00,
2013-06-01 01:27:00,69.3,67.1,29.85,South,180,0.0,3.0,93,0.00,,,0.00,meteohub,2013-06-01 06:27:00,
2013-06-01 01:32:00,69.3,67.1,29.85,SE,135,0.0,4.0,93,0.00,,,0.00,meteohub,2013-06-01 06:32:00,
2013-06-01 01:37:00,69.3,67.1,29.88,SE,135,0.0,4.0,93,0.00,,,0.00,meteohub,2013-06-01 06:37:00,
2013-06-01 01:42:00,69.3,67.1,29.88,SW,225,0.0,4.0,93,0.00,,,0.00,meteohub,2013-06-01 06:42:00,
2013-06-01 01:47:00,69.3,67.1,29.88,SSW,202,0.0,3.0,93,0.00,,,0.00,meteohub,2013-06-01 06:47:00,
2013-06-01 01:52:00,69.3,67.1,29.88,ESE,112,0.0,3.0,93,0.00,,,0.00,meteohub,2013-06-01 06:52:00,
2013-06-01 01:57:00,69.4,67.3,29.88,SSW,202,0.0,4.0,93,0.00,,,0.00,meteohub,2013-06-01 06:57:00,
2013-06-01 02:02:00,69.4,67.3,29.88,SE,135,4.0,4.0,93,0.00,,,0.00,meteohub,2013-06-01 07:02:00,
2013-06-01 02:07:00,69.4,67.3,29.85,South,180,0.0,4.0,93,0.00,,,0.00,meteohub,2013-06-01 07:07:00,
2013-06-01 02:12:00,69.4,67.3,29.85,South,180,3.0,7.0,93,0.00,,,0.00,meteohub,2013-06-01 07:12:00,
2013-06-01 02:17:00,69.4,67.3,29.85,SW,225,5.0,8.0,93,0.00,,,0.00,meteohub,2013-06-01 07:17:00,
2013-06-01 02:22:00,69.4,67.3,29.82,SW,225,4.0,8.0,93,0.00,,,0.00,meteohub,2013-06-01 07:22:00,
2013-06-01 02:27:00,69.3,67.1,29.82,WSW,248,0.0,8.0,93,0.04,,,0.04,meteohub,2013-06-01 07:27:00,
2013-06-01 02:32:00,69.3,67.1,29.82,South,180,2.0,7.0,93,0.04,,,0.04,meteohub,2013-06-01 07:32:00,
2013-06-01 02:37:00,69.3,67.1,29.82,WSW,248,0.0,6.0,93,0.04,,,0.04,meteohub,2013-06-01 07:37:00,
2013-06-01 02:42:00,69.3,67.1,29.82,South,180,6.0,6.0,93,0.04,,,0.04,meteohub,2013-06-01 07:42:00,
2013-06-01 02:47:00,69.3,67.1,29.82,SW,225,0.0,6.0,93,0.04,,,0.04,meteohub,2013-06-01 07:47:00,
2013-06-01 02:52:00,69.1,66.9,29.82,SW,225,0.0,6.0,93,0.04,,,0.04,meteohub,2013-06-01 07:52:00,
2013-06-01 02:57:00,69.1,66.9,29.82,SSW,202,2.0,6.0,93,0.04,,,0.04,meteohub,2013-06-01 07:57:00,
2013-06-01 03:02:00,69.1,66.9,29.82,SSW,202,0.0,4.0,93,0.04,,,0.04,meteohub,2013-06-01 08:02:00,
2013-06-01 03:07:00,69.1,66.9,29.82,SSW,202,0.0,2.0,93,0.04,,,0.04,meteohub,2013-06-01 08:07:00,
2013-06-01 03:12:00,69.1,66.9,29.82,SSE,158,0.0,2.0,93,0.04,,,0.04,meteohub,2013-06-01 08:12:00,
2013-06-01 03:17:00,69.1,66.9,29.82,SSW,202,0.0,0.0,93,0.04,,,0.04,meteohub,2013-06-01 08:17:00,
2013-06-01 03:22:00,69.1,66.9,29.82,SW,225,0.0,0.0,93,0.04,,,0.04,meteohub,2013-06-01 08:22:00,
2013-06-01 03:27:00,69.1,66.9,29.82,SSW,202,0.0,3.0,93,0.00,,,0.04,meteohub,2013-06-01 08:27:00,
2013-06-01 03:32:00,69.1,66.9,29.82,West,270,0.0,3.0,93,0.00,,,0.04,meteohub,2013-06-01 08:32:00,
2013-06-01 03:37:00,68.9,66.7,29.82,SW,225,0.0,3.0,93,0.00,,,0.04,meteohub,2013-06-01 08:37:00,
2013-06-01 03:42:00,68.9,66.7,29.82,WSW,248,0.0,3.0,93,0.00,,,0.04,meteohub,2013-06-01 08:42:00,
2013-06-01 03:47:00,68.7,66.6,29.82,SSW,202,0.0,0.0,93,0.00,,,0.04,meteohub,2013-06-01 08:47:00,
2013-06-01 03:52:00,68.7,66.6,29.82,SSE,158,0.0,3.0,93,0.00,,,0.04,meteohub,2013-06-01 08:52:00,
2013-06-01 03:57:00,68.5,66.4,29.82,South,180,0.0,3.0,93,0.00,,,0.04,meteohub,2013-06-01 08:57:00,
2013-06-01 04:02:00,68.5,66.4,29.82,SSW,202,2.0,3.0,93,0.00,,,0.04,meteohub,2013-06-01 09:02:00,
2013-06-01 04:07:00,68.5,66.4,29.82,WSW,248,2.0,4.0,93,0.00,,,0.04,meteohub,2013-06-01 09:07:00,
2013-06-01 04:12:00,68.4,66.2,29.82,NW,315,0.0,4.0,93,0.00,,,0.04,meteohub,2013-06-01 09:12:00,
2013-06-01 04:17:00,68.4,66.2,29.82,SSW,202,3.0,4.0,93,0.00,,,0.04,meteohub,2013-06-01 09:17:00,
2013-06-01 04:22:00,68.2,66.0,29.82,South,180,0.0,4.0,93,0.00,,,0.04,meteohub,2013-06-01 09:22:00,
2013-06-01 04:27:00,68.0,65.8,29.82,SSW,202,0.0,4.0,93,0.00,,,0.04,meteohub,2013-06-01 09:27:00,
2013-06-01 04:32:00,67.8,65.7,29.82,South,180,3.0,3.0,93,0.00,,,0.04,meteohub,2013-06-01 09:32:00,
2013-06-01 04:37:00,67.8,65.7,29.82,South,180,0.0,5.0,93,0.00,,,0.04,meteohub,2013-06-01 09:37:00,
2013-06-01 04:42:00,67.6,65.5,29.82,SE,135,2.0,5.0,93,0.00,,,0.04,meteohub,2013-06-01 09:42:00,
2013-06-01 04:47:00,67.6,65.5,29.82,SSW,202,0.0,5.0,93,0.00,,,0.04,meteohub,2013-06-01 09:47:00,
2013-06-01 04:52:00,67.5,65.7,29.85,South,180,2.0,5.0,94,0.00,,,0.04,meteohub,2013-06-01 09:52:00,
2013-06-01 04:57:00,67.6,65.8,29.85,SSW,202,0.0,5.0,94,0.00,,,0.04,meteohub,2013-06-01 09:57:00,
2013-06-01 05:02:00,67.6,65.8,29.85,SSW,202,0.0,4.0,94,0.00,,,0.04,meteohub,2013-06-01 10:02:00,
2013-06-01 05:07:00,67.5,65.7,29.85,SSE,158,3.0,4.0,94,0.00,,,0.04,meteohub,2013-06-01 10:07:00,
2013-06-01 05:12:00,67.5,65.7,29.85,SSW,202,2.0,5.0,94,0.00,,,0.04,meteohub,2013-06-01 10:12:00,
2013-06-01 05:17:00,67.5,65.7,29.85,SSE,158,4.0,5.0,94,0.00,,,0.04,meteohub,2013-06-01 10:17:00,
2013-06-01 05:22:00,67.5,65.7,29.88,SSE,158,2.0,5.0,94,0.00,,,0.04,meteohub,2013-06-01 10:22:00,
2013-06-01 05:27:00,67.5,65.7,29.88,SSW,202,0.0,6.0,94,0.00,,,0.04,meteohub,2013-06-01 10:27:00,
2013-06-01 05:32:00,67.5,65.7,29.88,SE,135,0.0,6.0,94,0.00,,,0.04,meteohub,2013-06-01 10:32:00,
2013-06-01 05:37:00,67.3,65.5,29.85,South,180,0.0,2.0,94,0.00,,,0.04,meteohub,2013-06-01 10:37:00,
2013-06-01 05:42:00,67.3,65.5,29.85,South,180,0.0,0.0,94,0.00,,,0.04,meteohub,2013-06-01 10:42:00,
2013-06-01 05:47:00,67.3,65.5,29.85,SSW,202,0.0,5.0,94,0.00,,,0.04,meteohub,2013-06-01 10:47:00,
2013-06-01 05:51:00,67.3,65.5,29.85,SW,225,0.0,5.0,94,0.00,,,0.04,meteohub,2013-06-01 10:51:00,
2013-06-01 05:57:00,67.1,64.9,29.85,WSW,248,4.0,5.0,93,0.00,,,0.04,meteohub,2013-06-01 10:57:00,
2013-06-01 06:02:00,67.3,65.1,29.85,South,180,0.0,4.0,93,0.00,,,0.04,meteohub,2013-06-01 11:02:00,
2013-06-01 06:07:00,67.3,65.1,29.85,SW,225,0.0,4.0,93,0.00,,,0.04,meteohub,2013-06-01 11:07:00,
2013-06-01 06:12:00,67.5,65.3,29.85,SW,225,0.0,0.0,93,0.00,,,0.04,meteohub,2013-06-01 11:12:00,
2013-06-01 06:17:00,67.5,65.3,29.85,SW,225,0.0,4.0,93,0.00,,,0.04,meteohub,2013-06-01 11:17:00,
2013-06-01 06:22:00,67.6,65.5,29.85,SSE,158,4.0,4.0,93,0.00,,,0.04,meteohub,2013-06-01 11:22:00,
2013-06-01 06:27:00,67.8,65.7,29.85,South,180,0.0,4.0,93,0.00,,,0.04,meteohub,2013-06-01 11:27:00,
2013-06-01 06:32:00,68.0,65.8,29.85,South,180,0.0,4.0,93,0.00,,,0.04,meteohub,2013-06-01 11:32:00,
2013-06-01 06:37:00,68.0,65.7,29.85,SSE,158,4.0,4.0,92,0.00,,,0.04,meteohub,2013-06-01 11:37:00,
2013-06-01 06:42:00,68.0,65.7,29.85,SSE,158,2.0,4.0,92,0.00,,,0.04,meteohub,2013-06-01 11:42:00,
2013-06-01 06:47:00,67.8,65.5,29.85,SE,135,5.0,5.0,92,0.00,,,0.04,meteohub,2013-06-01 11:47:00,
2013-06-01 06:52:00,67.8,65.5,29.85,SW,225,2.0,10.0,92,0.00,,,0.04,meteohub,2013-06-01 11:52:00,
2013-06-01 06:57:00,68.0,65.3,29.85,SSW,202,0.0,10.0,91,0.00,,,0.04,meteohub,2013-06-01 11:57:00,
2013-06-01 07:02:00,68.4,66.0,29.85,WSW,248,2.0,7.0,92,0.00,,,0.04,meteohub,2013-06-01 12:02:00,
2013-06-01 07:07:00,68.5,66.2,29.88,ESE,112,5.0,8.0,92,0.00,,,0.04,meteohub,2013-06-01 12:07:00,
2013-06-01 07:12:00,68.5,65.8,29.88,South,180,6.0,8.0,91,0.00,,,0.04,meteohub,2013-06-01 12:12:00,
2013-06-01 07:17:00,68.4,65.7,29.88,ESE,112,7.0,7.0,91,0.00,,,0.04,meteohub,2013-06-01 12:17:00,
2013-06-01 07:22:00,68.4,65.3,29.85,NE,45,4.0,13.0,90,0.00,,,0.04,meteohub,2013-06-01 12:22:00,
2013-06-01 07:27:00,68.4,65.3,29.85,SSW,202,7.0,13.0,90,0.00,,,0.04,meteohub,2013-06-01 12:27:00,
2013-06-01 07:32:00,68.5,65.5,29.85,East,90,3.0,8.0,90,0.00,,,0.04,meteohub,2013-06-01 12:32:00,
2013-06-01 07:37:00,68.7,65.7,29.88,SSE,158,6.0,11.0,90,0.00,,,0.04,meteohub,2013-06-01 12:37:00,
2013-06-01 07:42:00,68.9,65.8,29.88,SSE,158,3.0,11.0,90,0.00,,,0.04,meteohub,2013-06-01 12:42:00,
2013-06-01 07:47:00,68.9,65.5,29.88,SW,225,6.0,11.0,89,0.00,,,0.04,meteohub,2013-06-01 12:47:00,
2013-06-01 07:52:00,68.9,65.5,29.88,SSE,158,8.0,11.0,89,0.00,,,0.04,meteohub,2013-06-01 12:52:00,
2013-06-01 07:57:00,68.7,64.9,29.88,West,270,3.0,8.0,88,0.00,,,0.04,meteohub,2013-06-01 12:57:00,
2013-06-01 08:02:00,69.4,66.0,29.88,SW,225,8.0,10.0,89,0.00,,,0.04,meteohub,2013-06-01 13:02:00,
2013-06-01 08:07:00,70.2,66.7,29.88,SW,225,5.0,10.0,89,0.00,,,0.04,meteohub,2013-06-01 13:07:00,
2013-06-01 08:12:00,70.5,66.7,29.88,West,270,0.0,8.0,88,0.00,,,0.04,meteohub,2013-06-01 13:12:00,
2013-06-01 08:17:00,70.7,66.6,29.88,SE,135,3.0,8.0,87,0.00,,,0.04,meteohub,2013-06-01 13:17:00,
2013-06-01 08:22:00,71.1,66.9,29.88,WSW,248,2.0,9.0,87,0.00,,,0.04,meteohub,2013-06-01 13:22:00,
2013-06-01 08:27:00,71.1,66.0,29.88,NNE,22,3.0,9.0,84,0.00,,,0.04,meteohub,2013-06-01 13:27:00,
2013-06-01 08:32:00,70.9,65.5,29.88,SSE,158,0.0,9.0,83,0.00,,,0.04,meteohub,2013-06-01 13:32:00,
2013-06-01 08:37:00,70.9,65.1,29.88,East,90,0.0,7.0,82,0.00,,,0.04,meteohub,2013-06-01 13:37:00,
2013-06-01 08:42:00,71.1,64.9,29.88,South,180,5.0,7.0,81,0.00,,,0.04,meteohub,2013-06-01 13:42:00,
2013-06-01 08:47:00,71.1,64.9,29.88,SW,225,3.0,8.0,81,0.00,,,0.04,meteohub,2013-06-01 13:47:00,
2013-06-01 08:52:00,71.2,64.8,29.88,SW,225,4.0,8.0,80,0.00,,,0.04,meteohub,2013-06-01 13:52:00,
2013-06-01 08:57:00,71.4,64.9,29.88,South,180,8.0,8.0,80,0.00,,,0.04,meteohub,2013-06-01 13:57:00,
2013-06-01 09:02:00,71.2,64.4,29.88,SSW,202,2.0,8.0,79,0.00,,,0.04,meteohub,2013-06-01 14:02:00,
2013-06-01 09:07:00,71.2,64.0,29.88,SW,225,4.0,8.0,78,0.00,,,0.04,meteohub,2013-06-01 14:07:00,
2013-06-01 09:12:00,71.1,63.9,29.88,SW,225,4.0,8.0,78,0.00,,,0.04,meteohub,2013-06-01 14:12:00,
2013-06-01 09:17:00,71.1,63.5,29.88,SE,135,4.0,8.0,77,0.00,,,0.04,meteohub,2013-06-01 14:17:00,
2013-06-01 09:22:00,71.2,64.0,29.88,SE,135,8.0,8.0,78,0.00,,,0.04,meteohub,2013-06-01 14:22:00,
2013-06-01 09:27:00,71.2,63.7,29.88,South,180,0.0,11.0,77,0.00,,,0.04,meteohub,2013-06-01 14:27:00,
2013-06-01 09:32:00,71.2,63.7,29.88,WSW,248,3.0,11.0,77,0.00,,,0.04,meteohub,2013-06-01 14:32:00,
2013-06-01 09:37:00,71.4,63.9,29.88,WNW,292,3.0,11.0,77,0.00,,,0.04,meteohub,2013-06-01 14:37:00,
2013-06-01 09:42:00,71.6,63.3,29.88,South,180,4.0,9.0,75,0.00,,,0.04,meteohub,2013-06-01 14:42:00,
2013-06-01 09:47:00,72.1,64.2,29.88,West,270,2.0,11.0,76,0.00,,,0.04,meteohub,2013-06-01 14:47:00,
2013-06-01 09:52:00,72.3,64.4,29.85,North,0,2.0,11.0,76,0.00,,,0.04,meteohub,2013-06-01 14:52:00,
2013-06-01 09:57:00,72.5,63.7,29.85,East,90,4.0,7.0,74,0.00,,,0.04,meteohub,2013-06-01 14:57:00,
2013-06-01 10:02:00,72.7,63.5,29.85,West,270,6.0,8.0,73,0.00,,,0.04,meteohub,2013-06-01 15:02:00,
2013-06-01 10:07:00,72.9,63.7,29.85,South,180,5.0,12.0,73,0.00,,,0.04,meteohub,2013-06-01 15:07:00,
2013-06-01 10:12:00,73.0,63.5,29.85,SSW,202,6.0,12.0,72,0.00,,,0.04,meteohub,2013-06-01 15:12:00,
2013-06-01 10:17:00,73.2,62.8,29.85,South,180,0.0,12.0,70,0.00,,,0.04,meteohub,2013-06-01 15:17:00,
2013-06-01 10:22:00,73.0,62.6,29.88,South,180,10.0,10.0,70,0.00,,,0.04,meteohub,2013-06-01 15:22:00,
2013-06-01 10:27:00,73.2,62.4,29.88,SE,135,7.0,10.0,69,0.00,,,0.04,meteohub,2013-06-01 15:27:00,
2013-06-01 10:32:00,73.2,62.4,29.88,West,270,6.0,10.0,69,0.00,,,0.04,meteohub,2013-06-01 15:32:00,
2013-06-01 10:37:00,73.2,62.4,29.88,WSW,248,6.0,10.0,69,0.00,,,0.04,meteohub,2013-06-01 15:37:00,
2013-06-01 10:42:00,73.6,62.8,29.88,WSW,248,8.0,10.0,69,0.00,,,0.04,meteohub,2013-06-01 15:42:00,
2013-06-01 10:47:00,73.6,62.8,29.88,East,90,2.0,10.0,69,0.00,,,0.04,meteohub,2013-06-01 15:47:00,
2013-06-01 10:52:00,73.6,62.4,29.88,SSW,202,8.0,9.0,68,0.00,,,0.04,meteohub,2013-06-01 15:52:00,
2013-06-01 10:57:00,73.8,62.6,29.88,NW,315,7.0,10.0,68,0.00,,,0.04,meteohub,2013-06-01 15:57:00,
2013-06-01 11:02:00,73.8,62.1,29.88,SSW,202,2.0,11.0,67,0.00,,,0.04,meteohub,2013-06-01 16:02:00,
2013-06-01 11:07:00,73.4,61.7,29.88,SE,135,8.0,11.0,67,0.00,,,0.04,meteohub,2013-06-01 16:07:00,
2013-06-01 11:12:00,73.0,61.5,29.88,South,180,10.0,12.0,67,0.00,,,0.04,meteohub,2013-06-01 16:12:00,
2013-06-01 11:17:00,73.0,61.0,29.88,SSE,158,6.0,17.0,66,0.00,,,0.04,meteohub,2013-06-01 16:17:00,
2013-06-01 11:22:00,72.7,60.6,29.88,West,270,4.0,17.0,66,0.00,,,0.04,meteohub,2013-06-01 16:22:00,
2013-06-01 11:27:00,72.9,61.3,29.88,North,0,3.0,17.0,67,0.00,,,0.04,meteohub,2013-06-01 16:27:00,
2013-06-01 11:32:00,72.5,61.3,29.88,SSE,158,2.0,13.0,68,0.00,,,0.04,meteohub,2013-06-01 16:32:00,
2013-06-01 11:37:00,72.7,61.5,29.88,East,90,4.0,12.0,68,0.00,,,0.04,meteohub,2013-06-01 16:37:00,
2013-06-01 11:42:00,73.2,62.4,29.88,South,180,6.0,10.0,69,0.00,,,0.04,meteohub,2013-06-01 16:42:00,
2013-06-01 11:47:00,73.6,62.8,29.88,SE,135,4.0,10.0,69,0.00,,,0.04,meteohub,2013-06-01 16:47:00,
2013-06-01 11:52:00,73.8,62.6,29.88,South,180,9.0,11.0,68,0.00,,,0.04,meteohub,2013-06-01 16:52:00,
2013-06-01 11:57:00,74.1,63.0,29.88,West,270,2.0,11.0,68,0.00,,,0.04,meteohub,2013-06-01 16:57:00,
2013-06-01 12:02:00,74.3,63.1,29.88,SW,225,3.0,11.0,68,0.00,,,0.04,meteohub,2013-06-01 17:02:00,
2013-06-01 12:07:00,74.3,63.1,29.85,SSE,158,5.0,10.0,68,0.00,,,0.04,meteohub,2013-06-01 17:07:00,
2013-06-01 12:12:00,74.3,62.6,29.85,SSE,158,6.0,10.0,67,0.00,,,0.04,meteohub,2013-06-01 17:12:00,
2013-06-01 12:17:00,74.1,62.4,29.85,SSE,158,4.0,10.0,67,0.00,,,0.04,meteohub,2013-06-01 17:17:00,
2013-06-01 12:22:00,73.9,61.9,29.88,WSW,248,6.0,7.0,66,0.00,,,0.04,meteohub,2013-06-01 17:22:00,
2013-06-01 12:27:00,73.9,62.2,29.88,NW,315,6.0,7.0,67,0.00,,,0.04,meteohub,2013-06-01 17:27:00,
2013-06-01 12:32:00,74.1,63.0,29.88,South,180,5.0,10.0,68,0.00,,,0.04,meteohub,2013-06-01 17:32:00,
2013-06-01 12:37:00,73.9,62.8,29.88,WSW,248,2.0,10.0,68,0.00,,,0.04,meteohub,2013-06-01 17:37:00,
2013-06-01 12:42:00,73.6,62.4,29.88,ENE,68,4.0,10.0,68,0.00,,,0.04,meteohub,2013-06-01 17:42:00,
2013-06-01 12:47:00,74.1,63.3,29.88,East,90,10.0,14.0,69,0.00,,,0.04,meteohub,2013-06-01 17:47:00,
2013-06-01 12:52:00,74.7,63.9,29.85,South,180,0.0,14.0,69,0.00,,,0.04,meteohub,2013-06-01 17:52:00,
2013-06-01 12:57:00,74.8,64.0,29.85,ESE,112,6.0,13.0,69,0.00,,,0.04,meteohub,2013-06-01 17:57:00,
2013-06-01 13:02:00,75.2,63.9,29.85,SSE,158,7.0,13.0,68,0.00,,,0.04,meteohub,2013-06-01 18:02:00,
2013-06-01 13:07:00,75.7,64.4,29.88,South,180,7.0,12.0,68,0.00,,,0.04,meteohub,2013-06-01 18:07:00,
2013-06-01 13:12:00,75.7,64.0,29.88,South,180,9.0,12.0,67,0.00,,,0.04,meteohub,2013-06-01 18:12:00,
2013-06-01 13:17:00,75.7,63.5,29.88,SSW,202,5.0,12.0,66,0.00,,,0.04,meteohub,2013-06-01 18:17:00,
2013-06-01 13:22:00,75.9,64.2,29.85,SSE,158,5.0,12.0,67,0.00,,,0.04,meteohub,2013-06-01 18:22:00,
2013-06-01 13:27:00,75.7,63.5,29.85,SSW,202,5.0,10.0,66,0.00,,,0.04,meteohub,2013-06-01 18:27:00,
2013-06-01 13:32:00,75.4,62.8,29.85,SSW,202,7.0,10.0,65,0.00,,,0.04,meteohub,2013-06-01 18:32:00,
2013-06-01 13:37:00,75.0,63.3,29.88,SSE,158,3.0,9.0,67,0.00,,,0.04,meteohub,2013-06-01 18:37:00,
2013-06-01 13:42:00,75.2,63.5,29.88,South,180,6.0,9.0,67,0.00,,,0.04,meteohub,2013-06-01 18:42:00,
2013-06-01 13:47:00,75.4,63.7,29.88,East,90,6.0,10.0,67,0.00,,,0.04,meteohub,2013-06-01 18:47:00,
2013-06-01 13:52:00,75.7,64.4,29.88,SSW,202,2.0,10.0,68,0.00,,,0.04,meteohub,2013-06-01 18:52:00,
2013-06-01 13:58:00,75.9,64.6,29.88,ENE,68,2.0,10.0,68,0.00,,,0.04,meteohub,2013-06-01 18:58:00,
2013-06-01 14:03:00,76.3,65.3,29.88,SE,135,3.0,7.0,69,0.00,,,0.04,meteohub,2013-06-01 19:03:00,
2013-06-01 14:08:00,76.6,65.3,29.88,SSE,158,2.0,6.0,68,0.00,,,0.04,meteohub,2013-06-01 19:08:00,
2013-06-01 14:13:00,77.0,65.1,29.88,SW,225,5.0,10.0,67,0.00,,,0.04,meteohub,2013-06-01 19:13:00,
2013-06-01 14:18:00,77.0,64.4,29.88,South,180,2.0,10.0,65,0.00,,,0.04,meteohub,2013-06-01 19:18:00,
2013-06-01 14:23:00,77.0,64.4,29.88,ESE,112,6.0,10.0,65,0.00,,,0.04,meteohub,2013-06-01 19:23:00,
2013-06-01 14:28:00,77.0,64.4,29.88,SSW,202,6.0,10.0,65,0.00,,,0.04,meteohub,2013-06-01 19:28:00,
2013-06-01 14:33:00,77.2,64.6,29.88,SSE,158,2.0,9.0,65,0.00,,,0.04,meteohub,2013-06-01 19:33:00,
2013-06-01 14:38:00,77.5,64.8,29.85,South,180,5.0,8.0,65,0.00,,,0.04,meteohub,2013-06-01 19:38:00,
2013-06-01 14:43:00,77.5,64.4,29.85,SSW,202,0.0,9.0,64,0.00,,,0.04,meteohub,2013-06-01 19:43:00,
2013-06-01 14:48:00,77.5,64.4,29.85,East,90,0.0,9.0,64,0.00,,,0.04,meteohub,2013-06-01 19:48:00,
2013-06-01 14:53:00,77.5,64.4,29.85,East,90,2.0,8.0,64,0.00,,,0.04,meteohub,2013-06-01 19:53:00,
2013-06-01 14:58:00,78.1,64.9,29.85,SSE,158,0.0,8.0,64,0.00,,,0.04,meteohub,2013-06-01 19:58:00,
2013-06-01 15:03:00,78.1,64.0,29.85,South,180,4.0,10.0,62,0.00,,,0.04,meteohub,2013-06-01 20:03:00,
2013-06-01 15:08:00,77.9,63.3,29.85,SE,135,3.0,10.0,61,0.00,,,0.04,meteohub,2013-06-01 20:08:00,
2013-06-01 15:13:00,78.1,63.5,29.85,SSE,158,5.0,10.0,61,0.00,,,0.04,meteohub,2013-06-01 20:13:00,
2013-06-01 15:18:00,78.1,62.6,29.82,SW,225,6.0,14.0,59,0.00,,,0.04,meteohub,2013-06-01 20:18:00,
2013-06-01 15:23:00,77.9,62.4,29.82,South,180,8.0,14.0,59,0.00,,,0.04,meteohub,2013-06-01 20:23:00,
2013-06-01 15:28:00,77.9,63.0,29.82,SE,135,5.0,14.0,60,0.00,,,0.04,meteohub,2013-06-01 20:28:00,
2013-06-01 15:33:00,77.7,62.8,29.82,SE,135,5.0,10.0,60,0.00,,,0.04,meteohub,2013-06-01 20:33:00,
2013-06-01 15:38:00,78.1,64.0,29.82,ESE,112,0.0,10.0,62,0.00,,,0.04,meteohub,2013-06-01 20:38:00,
2013-06-01 15:43:00,78.3,64.2,29.82,West,270,2.0,11.0,62,0.00,,,0.04,meteohub,2013-06-01 20:43:00,
2013-06-01 15:48:00,78.3,63.7,29.82,SSE,158,2.0,11.0,61,0.00,,,0.04,meteohub,2013-06-01 20:48:00,
2013-06-01 15:53:00,78.3,63.7,29.82,SSE,158,0.0,10.0,61,0.00,,,0.04,meteohub,2013-06-01 20:53:00,
2013-06-01 15:58:00,78.3,63.7,29.82,West,270,7.0,9.0,61,0.00,,,0.04,meteohub,2013-06-01 20:58:00,
2013-06-01 16:03:00,78.1,63.1,29.82,SW,225,5.0,7.0,60,0.00,,,0.04,meteohub,2013-06-01 21:03:00,
2013-06-01 16:08:00,78.3,63.7,29.82,NW,315,8.0,8.0,61,0.00,,,0.04,meteohub,2013-06-01 21:08:00,
2013-06-01 16:13:00,78.3,61.3,29.82,West,270,6.0,7.0,56,0.00,,,0.04,meteohub,2013-06-01 21:13:00,
2013-06-01 16:18:00,78.1,61.5,29.82,SSW,202,7.0,10.0,57,0.00,,,0.04,meteohub,2013-06-01 21:18:00,
2013-06-01 16:23:00,78.1,62.1,29.82,East,90,0.0,10.0,58,0.00,,,0.04,meteohub,2013-06-01 21:23:00,
2013-06-01 16:28:00,78.3,61.7,29.82,WSW,248,7.0,9.0,57,0.00,,,0.04,meteohub,2013-06-01 21:28:00,
2013-06-01 16:33:00,78.3,61.7,29.82,SW,225,2.0,7.0,57,0.00,,,0.04,meteohub,2013-06-01 21:33:00,
2013-06-01 16:38:00,78.4,61.5,29.79,West,270,4.0,13.0,56,0.00,,,0.04,meteohub,2013-06-01 21:38:00,
2013-06-01 16:43:00,78.1,61.2,29.79,SW,225,6.0,13.0,56,0.00,,,0.04,meteohub,2013-06-01 21:43:00,
2013-06-01 16:48:00,77.5,60.1,29.82,West,270,7.0,7.0,55,0.00,,,0.04,meteohub,2013-06-01 21:48:00,
2013-06-01 16:53:00,77.4,59.9,29.82,West,270,7.0,8.0,55,0.00,,,0.04,meteohub,2013-06-01 21:53:00,
2013-06-01 16:58:00,77.5,60.6,29.82,WSW,248,5.0,8.0,56,0.00,,,0.04,meteohub,2013-06-01 21:58:00,
2013-06-01 17:03:00,78.3,59.7,29.82,WSW,248,5.0,12.0,53,0.00,,,0.04,meteohub,2013-06-01 22:03:00,
2013-06-01 17:08:00,78.4,60.4,29.82,WNW,292,3.0,12.0,54,0.00,,,0.04,meteohub,2013-06-01 22:08:00,
2013-06-01 17:13:00,78.4,59.9,29.82,West,270,5.0,12.0,53,0.00,,,0.04,meteohub,2013-06-01 22:13:00,
2013-06-01 17:18:00,77.9,58.3,29.82,WSW,248,7.0,13.0,51,0.00,,,0.04,meteohub,2013-06-01 22:18:00,
2013-06-01 17:23:00,77.5,57.4,29.82,West,270,16.0,16.0,50,0.00,,,0.04,meteohub,2013-06-01 22:23:00,
2013-06-01 17:29:00,77.5,57.4,29.82,SW,225,5.0,16.0,50,0.00,,,0.04,meteohub,2013-06-01 22:29:00,
2013-06-01 17:34:00,77.5,57.4,29.82,West,270,9.0,16.0,50,0.00,,,0.04,meteohub,2013-06-01 22:34:00,
2013-06-01 17:39:00,77.4,55.6,29.82,West,270,9.0,16.0,47,0.00,,,0.04,meteohub,2013-06-01 22:39:00,
2013-06-01 17:44:00,77.4,55.0,29.82,WNW,292,9.0,16.0,46,0.00,,,0.04,meteohub,2013-06-01 22:44:00,
2013-06-01 17:49:00,77.0,54.7,29.82,NE,45,0.0,15.0,46,0.00,,,0.04,meteohub,2013-06-01 22:49:00,
2013-06-01 17:53:00,76.8,55.6,29.82,ESE,112,2.0,15.0,48,0.00,,,0.04,meteohub,2013-06-01 22:53:00,
2013-06-01 17:59:00,77.0,55.8,29.82,West,270,13.0,15.0,48,0.00,,,0.04,meteohub,2013-06-01 22:59:00,
2013-06-01 18:04:00,77.0,55.2,29.85,WSW,248,5.0,14.0,47,0.00,,,0.04,meteohub,2013-06-01 23:04:00,
2013-06-01 18:09:00,76.8,54.5,29.85,WSW,248,12.0,14.0,46,0.00,,,0.04,meteohub,2013-06-01 23:09:00,
2013-06-01 18:14:00,76.6,54.3,29.85,West,270,11.0,18.0,46,0.00,,,0.04,meteohub,2013-06-01 23:14:00,
2013-06-01 18:19:00,76.5,54.1,29.82,NE,45,8.0,18.0,46,0.00,,,0.04,meteohub,2013-06-01 23:19:00,
2013-06-01 18:24:00,76.3,54.0,29.82,WSW,248,6.0,18.0,46,0.00,,,0.04,meteohub,2013-06-01 23:24:00,
2013-06-01 18:29:00,75.6,52.2,29.82,WSW,248,9.0,15.0,44,0.00,,,0.04,meteohub,2013-06-01 23:29:00,
2013-06-01 18:34:00,75.6,53.4,29.82,West,270,3.0,13.0,46,0.00,,,0.04,meteohub,2013-06-01 23:34:00,
2013-06-01 18:39:00,75.6,52.7,29.82,SW,225,6.0,13.0,45,0.00,,,0.04,meteohub,2013-06-01 23:39:00,
2013-06-01 18:44:00,75.0,52.2,29.82,West,270,4.0,14.0,45,0.00,,,0.04,meteohub,2013-06-01 23:44:00,
2013-06-01 18:49:00,74.8,52.7,29.82,North,0,10.0,17.0,46,0.00,,,0.04,meteohub,2013-06-01 23:49:00,
2013-06-01 18:54:00,74.7,52.5,29.82,SW,225,9.0,18.0,46,0.00,,,0.04,meteohub,2013-06-01 23:54:00,
2013-06-01 18:59:00,74.1,52.7,29.82,WSW,248,8.0,18.0,47,0.00,,,0.04,meteohub,2013-06-01 23:59:00,
2013-06-01 19:04:00,73.8,51.6,29.82,WSW,248,10.0,18.0,46,0.00,,,0.04,meteohub,2013-06-02 00:04:00,
2013-06-01 19:09:00,73.4,52.0,29.79,WNW,292,13.0,14.0,47,0.00,,,0.04,meteohub,2013-06-02 00:09:00,
2013-06-01 19:14:00,73.0,52.2,29.79,WSW,248,13.0,14.0,48,0.00,,,0.04,meteohub,2013-06-02 00:14:00,
2013-06-01 19:19:00,72.9,52.5,29.82,West,270,11.0,17.0,49,0.00,,,0.04,meteohub,2013-06-02 00:19:00,
2013-06-01 19:24:00,72.7,53.6,29.82,West,270,8.0,17.0,51,0.00,,,0.04,meteohub,2013-06-02 00:24:00,
2013-06-01 19:29:00,72.5,52.9,29.82,WNW,292,12.0,16.0,50,0.00,,,0.04,meteohub,2013-06-02 00:29:00,
2013-06-01 19:34:00,71.8,52.7,29.82,West,270,10.0,16.0,51,0.00,,,0.04,meteohub,2013-06-02 00:34:00,
2013-06-01 19:39:00,71.4,52.3,29.82,WSW,248,9.0,16.0,51,0.00,,,0.04,meteohub,2013-06-02 00:39:00,
2013-06-01 19:44:00,71.2,52.7,29.82,West,270,11.0,16.0,52,0.00,,,0.04,meteohub,2013-06-02 00:44:00,
2013-06-01 19:49:00,71.1,53.1,29.82,West,270,7.0,15.0,53,0.00,,,0.04,meteohub,2013-06-02 00:49:00,
2013-06-01 19:54:00,70.9,52.9,29.82,WNW,292,6.0,15.0,53,0.00,,,0.04,meteohub,2013-06-02 00:54:00,
2013-06-01 19:59:00,70.7,52.7,29.82,West,270,5.0,15.0,53,0.00,,,0.04,meteohub,2013-06-02 00:59:00,
2013-06-01 20:04:00,70.3,52.0,29.82,WNW,292,10.0,13.0,52,0.00,,,0.04,meteohub,2013-06-02 01:04:00,
2013-06-01 20:10:00,69.8,51.4,29.82,West,270,15.0,15.0,52,0.00,,,0.04,meteohub,2013-06-02 01:10:00,
2013-06-01 20:15:00,69.6,52.3,29.82,WSW,248,14.0,14.0,54,0.00,,,0.04,meteohub,2013-06-02 01:15:00,
2013-06-01 20:20:00,69.3,52.3,29.82,West,270,6.0,15.0,55,0.00,,,0.04,meteohub,2013-06-02 01:20:00,
2013-06-01 20:25:00,68.9,52.5,29.82,WNW,292,10.0,15.0,56,0.00,,,0.04,meteohub,2013-06-02 01:25:00,
2013-06-01 20:30:00,68.7,52.9,29.82,West,270,10.0,18.0,57,0.00,,,0.04,meteohub,2013-06-02 01:30:00,
2013-06-01 20:35:00,68.5,52.7,29.85,WNW,292,8.0,18.0,57,0.00,,,0.04,meteohub,2013-06-02 01:35:00,
2013-06-01 20:40:00,68.5,53.2,29.85,West,270,5.0,10.0,58,0.00,,,0.04,meteohub,2013-06-02 01:40:00,
2013-06-01 20:45:00,68.5,53.2,29.85,WSW,248,5.0,10.0,58,0.00,,,0.04,meteohub,2013-06-02 01:45:00,
2013-06-01 20:50:00,68.4,53.4,29.85,West,270,4.0,9.0,59,0.00,,,0.04,meteohub,2013-06-02 01:50:00,
2013-06-01 20:55:00,68.0,53.6,29.85,West,270,5.0,8.0,60,0.00,,,0.04,meteohub,2013-06-02 01:55:00,
2013-06-01 21:00:00,67.8,54.0,29.85,WSW,248,5.0,8.0,61,0.00,,,0.04,meteohub,2013-06-02 02:00:00,
2013-06-01 21:05:00,67.6,54.1,29.85,West,270,4.0,8.0,62,0.00,,,0.04,meteohub,2013-06-02 02:05:00,
2013-06-01 21:10:00,67.6,54.1,29.85,SW,225,5.0,7.0,62,0.00,,,0.04,meteohub,2013-06-02 02:10:00,
2013-06-01 21:15:00,67.5,54.5,29.85,South,180,8.0,10.0,63,0.00,,,0.04,meteohub,2013-06-02 02:15:00,
2013-06-01 21:20:00,67.3,54.3,29.88,WSW,248,6.0,11.0,63,0.00,,,0.04,meteohub,2013-06-02 02:20:00,
2013-06-01 21:25:00,67.1,54.1,29.88,West,270,8.0,11.0,63,0.00,,,0.04,meteohub,2013-06-02 02:25:00,
2013-06-01 21:30:00,67.1,54.1,29.88,West,270,9.0,10.0,63,0.00,,,0.04,meteohub,2013-06-02 02:30:00,
2013-06-01 21:35:00,66.9,54.3,29.88,WNW,292,7.0,16.0,64,0.00,,,0.04,meteohub,2013-06-02 02:35:00,
2013-06-01 21:40:00,66.9,54.3,29.88,WSW,248,6.0,16.0,64,0.00,,,0.04,meteohub,2013-06-02 02:40:00,
2013-06-01 21:45:00,66.9,54.0,29.88,WSW,248,14.0,16.0,63,0.00,,,0.04,meteohub,2013-06-02 02:45:00,
2013-06-01 21:50:00,66.9,54.0,29.85,West,270,10.0,14.0,63,0.00,,,0.04,meteohub,2013-06-02 02:50:00,
2013-06-01 21:55:00,66.7,53.8,29.85,WSW,248,17.0,17.0,63,0.00,,,0.04,meteohub,2013-06-02 02:55:00,
2013-06-01 22:00:00,66.7,54.1,29.85,SW,225,10.0,17.0,64,0.00,,,0.04,meteohub,2013-06-02 03:00:00,
2013-06-01 22:05:00,66.6,54.0,29.88,West,270,7.0,17.0,64,0.00,,,0.04,meteohub,2013-06-02 03:05:00,
2013-06-01 22:10:00,66.6,54.5,29.88,WSW,248,9.0,17.0,65,0.00,,,0.04,meteohub,2013-06-02 03:10:00,
2013-06-01 22:15:00,66.4,54.3,29.88,WSW,248,9.0,14.0,65,0.00,,,0.04,meteohub,2013-06-02 03:15:00,
2013-06-01 22:20:00,66.2,54.1,29.88,West,270,5.0,12.0,65,0.00,,,0.04,meteohub,2013-06-02 03:20:00,
2013-06-01 22:25:00,66.0,54.3,29.88,West,270,6.0,10.0,66,0.00,,,0.04,meteohub,2013-06-02 03:25:00,
2013-06-01 22:30:00,65.8,54.5,29.88,West,270,5.0,10.0,67,0.00,,,0.04,meteohub,2013-06-02 03:30:00,
2013-06-01 22:35:00,65.8,54.5,29.88,West,270,6.0,10.0,67,0.00,,,0.04,meteohub,2013-06-02 03:35:00,
2013-06-01 22:40:00,65.8,55.0,29.88,SSW,202,5.0,12.0,68,0.00,,,0.04,meteohub,2013-06-02 03:40:00,
2013-06-01 22:45:00,65.8,55.0,29.88,WSW,248,8.0,12.0,68,0.00,,,0.04,meteohub,2013-06-02 03:45:00,
2013-06-01 22:51:00,65.8,55.0,29.85,West,270,6.0,9.0,68,0.00,,,0.04,meteohub,2013-06-02 03:51:00,
2013-06-01 22:56:00,65.8,55.4,29.85,NW,315,11.0,11.0,69,0.00,,,0.04,meteohub,2013-06-02 03:56:00,
2013-06-01 23:01:00,65.7,55.6,29.85,WSW,248,6.0,13.0,70,0.00,,,0.04,meteohub,2013-06-02 04:01:00,
2013-06-01 23:02:00,65.7,55.2,29.85,SW,225,13.0,13.0,69,0.00,,,0.04,meteohub,2013-06-02 04:02:00,
2013-06-01 23:07:00,65.7,55.6,29.88,West,270,5.0,13.0,70,0.00,,,0.04,meteohub,2013-06-02 04:07:00,
2013-06-01 23:12:00,65.7,55.6,29.88,West,270,6.0,13.0,70,0.00,,,0.04,meteohub,2013-06-02 04:12:00,
2013-06-01 23:17:00,65.7,55.6,29.88,WNW,292,7.0,13.0,70,0.00,,,0.04,meteohub,2013-06-02 04:17:00,
2013-06-01 23:22:00,65.7,55.6,29.85,WSW,248,4.0,8.0,70,0.00,,,0.04,meteohub,2013-06-02 04:22:00,
2013-06-01 23:27:00,65.7,55.6,29.85,West,270,5.0,8.0,70,0.00,,,0.04,meteohub,2013-06-02 04:27:00,
2013-06-01 23:32:00,65.5,55.4,29.85,WSW,248,3.0,8.0,70,0.00,,,0.04,meteohub,2013-06-02 04:32:00,
2013-06-01 23:37:00,65.5,55.8,29.88,SW,225,7.0,8.0,71,0.00,,,0.04,meteohub,2013-06-02 04:37:00,
2013-06-01 23:42:00,65.5,55.8,29.88,WSW,248,3.0,8.0,71,0.00,,,0.04,meteohub,2013-06-02 04:42:00,
2013-06-01 23:47:00,65.3,55.6,29.88,West,270,4.0,8.0,71,0.00,,,0.04,meteohub,2013-06-02 04:47:00,
2013-06-01 23:52:00,65.3,55.6,29.88,WSW,248,4.0,7.0,71,0.00,,,0.04,meteohub,2013-06-02 04:52:00,
2013-06-01 23:57:00,65.3,56.1,29.88,WSW,248,6.0,7.0,72,0.00,,,0.04,meteohub,2013-06-02 04:57:00,